Regional Weather Roundup
Issued by NWS Albany, NY

Home | Current Version | Previous Version | Text Only | Print | Product List | Glossary On
Versions: 1 2 3 4 5 6 7 8 9 10 11 12 13 14 15 16 17 18 19 20 21 22 23 24 25 26 27
000
ASUS41 KALY 251410
RWRALY

NEW YORK STATE HOURLY WEATHER ROUNDUP
NATIONAL WEATHER SERVICE ALBANY NY
1000 AM EDT SUN JUN 25 2017

NOTE: "FAIR" INDICATES FEW OR NO CLOUDS BELOW 12,000 FEET WITH NO
SIGNIFICANT WEATHER AND/OR NO OBSTRUCTIONS TO VISIBILITY.

NYZ032-033-038>043-046>054-057>066-NYZ062>081-082-084-251500-
EAST


CITY           SKY/WX    TMP DP  RH WIND       PRES   REMARKS
ALBANY         PTSUNNY   70  56  61 S5        29.98S
GLENS FALLS    SUNNY     69  57  65 S9        29.95S
POUGHKEEPSIE   SUNNY     73  60  63 CALM      29.98S
NEWBURGH       SUNNY     73  63  68 W6        30.01S
MONTGOMERY     SUNNY     75  61  61 SW7       29.99S
WHITE PLAINS   MOSUNNY   77  54  44 NW6       29.99S
ISLIP          MOSUNNY   79  54  41 VRB6      29.98S
NEW YORK CITY  PTSUNNY   79  57  46 VRB5      29.98S
CENTRAL PARK   MOSUNNY   77  54  44 CALM      30.01F
$$

NYZ005>009-017-018-044>046-055-056-251500-
CENTRAL


CITY           SKY/WX    TMP DP  RH WIND       PRES   REMARKS
FULTON         MOSUNNY   71  58  63 SW10      29.96S
SYRACUSE       MOSUNNY   70  55  59 W16       29.96R
ROME           MOSUNNY   68  57  68 W6        29.97S
ELMIRA         NOT AVBL
BINGHAMTON     MOSUNNY   64  55  72 SW7       30.02R
MONTICELLO     SUNNY     66  61  82 CALM      30.04S
$$

NYZ026>034-041>043-087-251500-
NORTH


CITY           SKY/WX    TMP DP  RH WIND       PRES   REMARKS
WATERTOWN      PTSUNNY   66  60  81 SW10      29.93S
FORT DRUM      NOT AVBL
OGDENSBURG     FAIR      71  57  61 S7        29.91S
MASSENA        CLOUDY    68  58  70 VRB7      29.92S
SARANAC LAKE   MOSUNNY   66  55  67 SW7       29.94R
PLATTSBURGH    SUNNY     69  55  60 SE10      29.91S
$$

NYZ001>004-010>016-019>021-085-251500-
WEST


CITY           SKY/WX    TMP DP  RH WIND       PRES   REMARKS
NIAGARA FALLS  SUNNY     71  50  47 SW15      29.97R
BUFFALO        MOSUNNY   69  49  48 W16G23    29.97S
DUNKIRK        MOSUNNY   69  54  58 SW15G22   30.01R
JAMESTOWN      PTSUNNY   63  48  59 SW13G20   30.04S
WELLSVILLE     MOSUNNY   65  52  62 W12G22    30.05S
ROCHESTER      MOSUNNY   70  55  59 W15       29.97S
PENN YAN       PTSUNNY   70  50  49 W15       30.00S
$$

             KEY
       WCI = WIND CHILL INDEX
       VSB = VISIBILITY
       HX  = HEAT INDEX
$$




USA.gov is the U.S. government's official web portal to all federal, state and local government web resources and services.